Content
SEND FEEDBACK

Daily
Averages
Monthly
Summary
United States of America

MATTHEWS, MISSOURI


Home > North America > United States > Missouri
Elevation: 325 feet     Latitude: 36 51N     Longitude: 089 35W

WEATHER
 
SELECT A DAY
Number of Records: 243,560;   Date Range: 7/19/04 - 10/23/14
 
SHARE

PRINT THIS DATA

[ ← Previous Day ]
WEATHER ALMANAC - JANUARY 7, 2013
[ Next Day → ]
[ °C ]   °F
Weather ElementAverageHighLow
Temperature33.5 °F48.2 °F (2:35 pm)23 °F (3:55 am)
Dewpoint26.2 °F30.2 °F (9:15 am)19.4 °F (4:55 am)
Humidity76.4 %93 % (2:35 am)46 % (3:15 pm)
Barometer30.36 in30.48 in (8:55 am)30.23 in (10:35 pm)
Wind Speed2.8 mph9.2 mph (12:55 pm)
Weather ElementAverage
Visibility6.9 mi
Wind DirectionENE (73 °)

Weather ElementTotal
Precipitation---
Heating Degree Days29.4 (Base 65)
Averaged from 69 records on January 7, 2013
WEATHER CONDITIONS BREAKOUT
WIND DIRECTION BREAKOUT
WEATHER BY HOUR - JANUARY 7, 2013
[ °C ]   °F
Local TimeTemperatureDewpointHumidityBarometerVisibilityWind DirectionWind SpeedGust SpeedPrecipitationEventsConditions
12:35 AM28.4 °F24.8 °F86 %30.41 in7.0 miCalmClear
12:55 AM28.4 °F24.8 °F86 %30.41 in7.0 miCalmClear
1:15 AM26.6 °F23.0 °F86 %30.41 in5.0 miCalmClear
1:35 AM28.4 °F24.8 °F86 %30.42 in5.0 miCalmClear
1:55 AM26.6 °F23.0 °F86 %30.42 in3.0 miCalmClear
2:15 AM26.6 °F23.0 °F86 %30.43 in2.0 miCalmClear
2:35 AM24.8 °F23.0 °F93 %30.43 in1.2 miCalmMist
2:55 AM26.6 °F23.0 °F86 %30.43 in2.5 miCalmClear
3:15 AM24.8 °F21.2 °F86 %30.43 in3.0 miCalmClear
3:35 AM24.8 °F21.2 °F86 %30.43 in3.0 miNNE (30°)3.5 mphClear
3:55 AM23.0 °F21.2 °F93 %30.43 in3.0 miCalmClear
4:15 AM24.8 °F21.2 °F86 %30.43 in3.0 miCalmClear
4:35 AM23.0 °F21.2 °F93 %30.42 in3.0 miNNE (30°)3.5 mphClear
4:55 AM23.0 °F19.4 °F86 %30.43 in4.0 miCalmClear
5:15 AM23.0 °F21.2 °F93 %30.43 in2.5 miCalmClear
5:35 AM24.8 °F21.2 °F86 %30.43 in3.0 miCalmClear
5:55 AM23.0 °F21.2 °F93 %30.43 in3.0 miNorth (10°)3.5 mphClear
6:35 AM24.8 °F23.0 °F93 %30.43 in4.0 miNE (50°)4.6 mphClear
6:55 AM24.8 °F23.0 °F93 %30.44 in4.0 miNE (50°)3.5 mphClear
7:15 AM26.6 °F23.0 °F86 %30.44 in3.0 miENE (60°)3.5 mphClear
7:35 AM24.8 °F23.0 °F93 %30.45 in2.5 miCalmClear
7:55 AM26.6 °F23.0 °F86 %30.46 in3.0 miCalmClear
8:15 AM28.4 °F24.8 °F86 %30.46 in3.0 miCalmClear
8:35 AM30.2 °F26.6 °F86 %30.47 in4.0 miEast (100°)3.5 mphClear
8:55 AM32.0 °F28.4 °F87 %30.48 in4.0 miESE (110°)4.6 mphClear
9:15 AM32.0 °F30.2 °F93 %30.47 in5.0 miESE (110°)8.1 mphClear
9:35 AM33.8 °F30.2 °F87 %30.48 in7.0 miSE (130°)6.9 mphClear
9:55 AM33.8 °F30.2 °F87 %30.47 in7.0 miSE (130°)8.1 mphClear
10:15 AM35.6 °F30.2 °F81 %30.47 in10.0 miESE (120°)8.1 mphClear
10:35 AM37.4 °F30.2 °F75 %30.46 in10.0 miSE (130°)5.8 mphClear
10:55 AM39.2 °F30.2 °F70 %30.44 in10.0 miESE (110°)5.8 mphClear
11:15 AM39.2 °F28.4 °F65 %30.43 in10.0 miESE (120°)5.8 mphClear
11:35 AM39.2 °F28.4 °F65 %30.41 in10.0 miSSE (150°)4.6 mphClear
11:55 AM41.0 °F28.4 °F61 %30.39 in10.0 miSouth (180°)4.6 mphClear
12:15 PM41.0 °F28.4 °F61 %30.38 in10.0 miSSE (150°)4.6 mphClear
12:35 PM42.8 °F28.4 °F57 %30.36 in10.0 miSE (130°)6.9 mphClear
12:55 PM42.8 °F30.2 °F61 %30.33 in7.0 miSE (130°)9.2 mphClear
1:15 PM44.6 °F30.2 °F57 %30.33 in10.0 miEast (100°)6.9 mphClear
1:35 PM44.6 °F30.2 °F57 %30.33 in10.0 miCalmClear
1:55 PM46.4 °F30.2 °F53 %30.32 in10.0 miSE (140°)4.6 mphClear
2:15 PM46.4 °F28.4 °F50 %30.30 in10.0 miSE (130°)6.9 mphClear
2:35 PM48.2 °F30.2 °F50 %30.30 in10.0 miSE (130°)4.6 mphClear
2:55 PM46.4 °F28.4 °F50 %30.30 in10.0 miSSE (150°)5.8 mphClear
3:15 PM48.2 °F28.4 °F46 %30.29 in10.0 miSE (140°)5.8 mphClear
3:35 PM46.4 °F28.4 °F50 %30.28 in10.0 miSSE (150°)5.8 mphClear
3:55 PM46.4 °F28.4 °F50 %30.26 in10.0 miSE (140°)5.8 mphClear
4:15 PM46.4 °F28.4 °F50 %30.25 in10.0 miSSE (150°)5.8 mphClear
4:35 PM44.6 °F28.4 °F53 %30.26 in10.0 miSouth (180°)3.5 mphClear
4:55 PM42.8 °F26.6 °F53 %30.27 in10.0 miWSW (240°)3.5 mphClear
5:15 PM41.0 °F28.4 °F61 %30.28 in10.0 miWSW (250°)3.5 mphClear
5:35 PM39.2 °F30.2 °F70 %30.28 in10.0 miWest (270°)4.6 mphClear
5:55 PM35.6 °F28.4 °F75 %30.29 in10.0 miWest (280°)3.5 mphClear
6:15 PM37.4 °F30.2 °F75 %30.28 in10.0 miCalmClear
6:35 PM37.4 °F28.4 °F70 %30.28 in10.0 miCalmClear
6:55 PM35.6 °F26.6 °F70 %30.27 in10.0 miESE (110°)4.6 mphClear
7:15 PM33.8 °F28.4 °F81 %30.27 in10.0 miSE (130°)3.5 mphClear
7:35 PM35.6 °F28.4 °F75 %30.26 in10.0 miCalmClear
7:55 PM32.0 °F24.8 °F75 %30.27 in10.0 miCalmClear
8:15 PM30.2 °F26.6 °F86 %30.27 in10.0 miCalmClear
8:35 PM32.0 °F26.6 °F80 %30.26 in10.0 miCalmClear
8:55 PM30.2 °F24.8 °F80 %30.25 in7.0 miCalmClear
9:15 PM30.2 °F24.8 °F80 %30.25 in7.0 miCalmClear
9:35 PM30.2 °F26.6 °F86 %30.25 in7.0 miCalmClear
9:55 PM30.2 °F26.6 °F86 %30.25 in7.0 miCalmClear
10:15 PM28.4 °F24.8 °F86 %30.25 in7.0 miCalmClear
10:35 PM28.4 °F24.8 °F86 %30.23 in7.0 miCalmClear
10:55 PM28.4 °F24.8 °F86 %30.23 in4.0 miCalmClear
11:15 PM28.4 °F24.8 °F86 %30.23 in5.0 miCalmClear
11:35 PM28.4 °F24.8 °F86 %30.23 in3.0 miNW (320°)3.5 mphClear
Hourly data recorded from KCIR, located miles away from Matthews, Missouri







STORIES FROM OUR PARTNERS